sat.trackr.live / text

‹ back to catalog

STARLINK-34230

NORAD 64137 · 2025-111Q

PAYLOAD ACTIVE UNKNOWN

§ Identity

Operator
Country
US
Launch date
2025-05-24
Launch site
AFETR
Launch vehicle
Mass (kg)
RCS (m²)

Purposes: comms

External: N2YO · Heavens-Above · Gunter

§ Orbital elements

Epoch: 2026-05-25T04:00:03.998880Z

Period
91.62 min
Inclination
42.9881°
Eccentricity
0.0026691
Mean motion
15.71768491 rev/d
Perigee alt
335.9 km
Apogee alt
371.8 km
Semi-major
6,732.0 km
B*
2.5906e-3
RAAN
339.4357°
Arg perigee
285.4581°
Mean anomaly
62.1512°
Rev number
583

§ Raw data

STARLINK-342301 64137U 25111Q   26145.16671295  .00367756  00000+0  25906-2 0  99932 64137  42.9881 339.4357 0026691 285.4581  62.1512 15.71768491  5838

JSON: /api/v1/satellites/64137 · /tle

For live sub-satellite position, see the globe view (requires WebGL).

§ Visibility from observer

Set your observer location to see the next 7 days of passes ≥ 10°. The values pass through the URL so the page stays shareable.

No JS? Fill the form by hand. The geolocation button needs JavaScript.